EW7678 Weather Reports


Display with metric or nautical units.
time (UTC)temp
F
wind
direction
speed
MPH
gust
MPH
rain 1hr
in
rain 24hr
in
rain mn
in
humidity
%
barometer
mb
20260502163016 62 90 1.0 5.0 0.00 0.00 0.00 48 1019.7
20260502161513 63 288 0.0 4.0 0.00 0.00 0.00 50 1019.7
20260502151611 57 82 0.0 3.0 0.00 0.00 0.00 62 1019.8
20260502150108 54 310 0.0 2.0 0.00 0.00 0.00 66 1019.8
20260502123032 37 212 0.0 0.0 0.00 0.00 0.00 92 1018.9
20260502121542 37 212 0.0 0.0 0.00 0.00 0.00 91 1018.9
20260502114526 38 212 0.0 0.0 0.00 0.00 0.00 91 1018.6
20260502113024 38 212 0.0 0.0 0.00 0.00 0.00 90 1018.4
20260502111520 38 212 0.0 0.0 0.00 0.00 0.00 91 1018.3
20260502110021 39 212 0.0 0.0 0.00 0.00 0.00 91 1018.2
20260502104536 39 212 0.0 0.0 0.00 0.00 0.00 90 1018.2
20260502103015 39 212 0.0 0.0 0.00 0.00 0.00 89 1018.2
20260502101512 40 212 0.0 0.0 0.00 0.00 0.00 90 1018.1
20260502091509 41 212 0.0 0.0 0.00 0.00 0.00 87 1017.5
20260502090107 42 212 0.0 0.0 0.00 0.00 0.00 89 1017.5
20260502070042 45 212 0.0 0.0 0.00 0.00 0.00 82 1017.0
20260502064547 45 212 0.0 0.0 0.00 0.00 0.00 82 1016.6
20260502063040 46 212 0.0 0.0 0.00 0.00 0.00 81 1016.4
20260502061540 47 212 0.0 0.0 0.00 0.00 0.00 81 1016.3
20260502060039 48 212 0.0 0.0 0.00 0.00 0.00 80 1016.2
20260502054538 49 212 0.0 1.0 0.00 0.00 0.00 79 1016.1
20260502053038 50 212 0.0 0.0 0.00 0.00 0.00 79 1016.0
20260502051557 51 212 0.0 0.0 0.00 0.00 0.00 76 1015.8
20260502050036 52 212 0.0 0.0 0.00 0.00 0.00 75 1015.7
20260502044536 53 212 0.0 0.0 0.00 0.00 0.00 74 1015.5
20260502043040 55 212 0.0 0.0 0.00 0.00 0.00 73 1015.4
20260502041535 56 212 0.0 0.0 0.00 0.00 0.00 69 1015.4
20260502040035 57 212 0.0 0.0 0.00 0.00 0.00 67 1015.1
20260502034543 60 212 0.0 0.0 0.00 0.00 0.00 65 1014.9
20260502033047 61 212 0.0 0.0 0.00 0.00 0.00 62 1014.8
20260502031540 63 212 0.0 0.0 0.00 0.00 0.00 58 1014.6
20260502030033 65 212 0.0 0.0 0.00 0.00 0.00 54 1014.5
20260502024533 66 212 0.0 0.0 0.00 0.00 0.00 51 1014.4
20260502023033 68 212 0.0 0.0 0.00 0.00 0.00 51 1014.4
20260502021531 69 212 0.0 0.0 0.00 0.00 0.00 47 1014.2
20260502020031 71 213 0.0 0.0 0.00 0.00 0.00 46 1014.2
20260502014532 71 212 0.0 0.0 0.00 0.00 0.00 41 1014.2
20260502013029 73 212 0.0 0.0 0.00 0.00 0.00 36 1014.2
20260502011530 73 212 0.0 0.0 0.00 0.00 0.00 34 1014.2
20260502010028 73 212 0.0 0.0 0.00 0.00 0.00 34 1014.2
20260502004527 74 212 0.0 1.0 0.00 0.00 0.00 32 1014.2
20260502003026 75 207 0.0 1.0 0.00 0.00 0.00 31 1014.1
20260502001525 76 313 0.0 2.0 0.00 0.00 0.00 29 1014.2
20260502000026 76 257 0.0 3.0 0.00 0.00 0.00 29 1014.2
20260501234527 76 292 0.0 2.0 0.00 0.00 0.00 30 1014.2
20260501233023 76 221 1.0 3.0 0.00 0.00 0.00 31 1014.3
20260501231533 76 264 1.0 3.0 0.00 0.00 0.00 31 1014.5
20260501230020 76 221 0.0 2.0 0.00 0.00 0.00 30 1014.6
20260501224517 76 223 0.0 3.0 0.00 0.00 0.00 31 1014.8
20260501223017 76 105 0.0 4.0 0.00 0.00 0.00 32 1015.0
20260501221514 77 240 2.0 4.0 0.00 0.00 0.00 32 1015.0
20260501220014 77 100 1.0 4.0 0.00 0.00 0.00 32 1015.0
20260501214522 76 240 1.0 3.0 0.00 0.00 0.00 31 1015.2
20260501213012 76 162 1.0 5.0 0.00 0.00 0.00 31 1015.3
20260501211516 76 262 1.0 5.0 0.00 0.00 0.00 30 1015.5
20260501210007 76 244 1.0 2.0 0.00 0.00 0.00 29 1015.5
20260501204505 76 287 1.0 5.0 0.00 0.00 0.00 29 1015.6
20260501203003 75 289 2.0 4.0 0.00 0.00 0.00 30 1015.6
20260501201502 76 244 1.0 3.0 0.00 0.00 0.00 30 1015.8
20260501200058 75 110 1.0 4.0 0.00 0.00 0.00 32 1015.8
20260501194602 74 113 1.0 4.0 0.00 0.00 0.00 30 1016.0
20260501193053 73 321 1.0 3.0 0.00 0.00 0.00 34 1016.3
20260501191549 71 342 0.0 3.0 0.00 0.00 0.00 34 1016.4
20260501190101 71 44 0.0 2.0 0.00 0.00 0.00 35 1016.5
20260501184545 71 342 0.0 2.0 0.00 0.00 0.00 37 1016.6
20260501183042 69 8 0.0 3.0 0.00 0.00 0.00 39 1016.7
20260501181541 68 290 0.0 3.0 0.00 0.00 0.00 39 1016.9
20260501180040 66 116 0.0 3.0 0.00 0.00 0.00 41 1017.1
20260501174533 66 120 1.0 4.0 0.00 0.00 0.00 40 1017.2
20260501173035 65 282 0.0 2.0 0.00 0.00 0.00 43 1017.4
20260501171529 63 314 1.0 4.0 0.00 0.00 0.00 48 1017.4